| time (UTC) | temp C | wind direction | speed KPH | gust KPH | rain 1hr cm | rain 24hr cm | rain mn cm | humidity % | barometer mb |
| 20260510171728 | 19 | 5 | 4.8 | 6.4 | 0.00 | 0.41 | 0.03 | 57 | 1100.0 |
| 20260510170731 | 19 | 338 | 3.2 | 11.3 | 0.00 | 0.41 | 0.03 | 59 | 1100.2 |
| 20260510165731 | 18 | 334 | 4.8 | 11.3 | 0.00 | 0.43 | 0.03 | 60 | 1100.2 |
| 20260510163728 | 18 | 261 | 0.0 | 3.2 | 0.00 | 0.46 | 0.03 | 64 | 1100.6 |
| 20260510162730 | 18 | 328 | 3.2 | 8.0 | 0.00 | 0.48 | 0.03 | 67 | 1100.6 |
| 20260510161730 | 17 | 349 | 3.2 | 6.4 | 0.00 | 0.51 | 0.03 | 71 | 1100.5 |
| 20260510161630 | 17 | 60 | 3.2 | 6.4 | 0.00 | 0.51 | 0.03 | 71 | 1100.5 |
| 20260510160630 | 17 | 163 | 4.8 | 8.0 | 0.03 | 0.51 | 0.03 | 70 | 1100.8 |
| 20260510155730 | 17 | 144 | 6.4 | 8.0 | 0.03 | 0.53 | 0.03 | 71 | 1100.8 |
| 20260510154730 | 17 | 164 | 3.2 | 4.8 | 0.03 | 0.53 | 0.03 | 73 | 1100.7 |
| 20260510152728 | 16 | 198 | 8.0 | 11.3 | 0.03 | 0.56 | 0.03 | 76 | 1100.7 |
| 20260510145731 | 15 | 189 | 4.8 | 8.0 | 0.00 | 0.56 | 0.00 | 81 | 1100.6 |
| 20260510143729 | 15 | 146 | 6.4 | 12.9 | 0.00 | 0.58 | 0.00 | 82 | 1100.5 |
| 20260510143627 | 15 | 183 | 4.8 | 9.7 | 0.00 | 0.58 | 0.00 | 83 | 1100.6 |
| 20260510142630 | 14 | 159 | 11.3 | 14.5 | 0.00 | 0.61 | 0.00 | 83 | 1100.7 |
| 20260510141629 | 13 | 189 | 8.0 | 14.5 | 0.00 | 0.61 | 0.00 | 85 | 1100.7 |
| 20260510140629 | 13 | 172 | 8.0 | 12.9 | 0.00 | 0.64 | 0.00 | 85 | 1100.7 |
| 20260510135629 | 13 | 175 | 6.4 | 8.0 | 0.00 | 0.64 | 0.00 | 85 | 1100.9 |
| 20260510135529 | 12 | 169 | 9.7 | 12.9 | 0.00 | 0.64 | 0.00 | 85 | 1100.9 |
| 20260510133529 | 11 | 158 | 8.0 | 11.3 | 0.00 | 0.66 | 0.00 | 83 | 1101.0 |
| 20260510132628 | 11 | 152 | 6.4 | 8.0 | 0.00 | 0.66 | 0.00 | 83 | 1101.0 |
| 20260510131628 | 11 | 153 | 6.4 | 9.7 | 0.00 | 0.66 | 0.00 | 81 | 1101.0 |
| 20260510125729 | 10 | 157 | 3.2 | 6.4 | 0.00 | 0.69 | 0.00 | 80 | 1100.8 |
| 20260510124729 | 10 | 157 | 4.8 | 4.8 | 0.00 | 0.71 | 0.00 | 81 | 1100.8 |
| 20260510123731 | 10 | 157 | 4.8 | 6.4 | 0.00 | 0.71 | 0.00 | 80 | 1100.8 |
| 20260510122729 | 10 | 157 | 6.4 | 6.4 | 0.00 | 0.71 | 0.00 | 81 | 1100.7 |
| 20260510120829 | 10 | 157 | 0.0 | 1.6 | 0.00 | 0.76 | 0.00 | 81 | 1100.7 |
| 20260510115828 | 10 | 157 | 0.0 | 0.0 | 0.00 | 0.76 | 0.00 | 81 | 1100.8 |
| 20260510114829 | 10 | 157 | 0.0 | 0.0 | 0.00 | 0.76 | 0.00 | 81 | 1100.9 |
| 20260510113928 | 10 | 157 | 0.0 | 0.0 | 0.00 | 0.76 | 0.00 | 81 | 1100.8 |
| 20260510112929 | 9 | 157 | 1.6 | 3.2 | 0.00 | 0.76 | 0.00 | 81 | 1100.8 |
| 20260510111930 | 9 | 157 | 1.6 | 3.2 | 0.00 | 0.79 | 0.00 | 80 | 1100.7 |
| 20260510110930 | 9 | 157 | 0.0 | 1.6 | 0.00 | 0.79 | 0.00 | 81 | 1100.4 |
| 20260510104929 | 9 | 186 | 1.6 | 4.8 | 0.00 | 0.84 | 0.00 | 81 | 1100.2 |
| 20260510103929 | 9 | 157 | 0.0 | 1.6 | 0.00 | 0.86 | 0.00 | 81 | 1100.2 |
| 20260510102930 | 8 | 157 | 1.6 | 1.6 | 0.00 | 0.89 | 0.00 | 81 | 1099.8 |
| 20260510102027 | 8 | 157 | 0.0 | 0.0 | 0.00 | 0.91 | 0.00 | 81 | 1099.9 |
| 20260510101030 | 8 | 157 | 0.0 | 1.6 | 0.00 | 0.94 | 0.00 | 81 | 1099.7 |
| 20260510094129 | 8 | 157 | 1.6 | 3.2 | 0.00 | 1.04 | 0.00 | 81 | 1099.1 |
| 20260510091131 | 8 | 202 | 0.0 | 0.0 | 0.00 | 1.09 | 0.00 | 81 | 1098.9 |
| 20260510090228 | 8 | 112 | 0.0 | 0.0 | 0.00 | 1.09 | 0.00 | 81 | 1098.8 |
| 20260510085130 | 8 | 157 | 0.0 | 0.0 | 0.00 | 1.09 | 0.00 | 81 | 1098.8 |
| 20260510084128 | 8 | 202 | 1.6 | 3.2 | 0.00 | 1.09 | 0.00 | 81 | 1099.0 |
| 20260510082148 | 8 | 202 | 0.0 | 0.0 | 0.00 | 1.09 | 0.00 | 81 | 1099.4 |
| 20260510081231 | 8 | 202 | 0.0 | 0.0 | 0.00 | 1.09 | 0.00 | 81 | 1099.5 |
| 20260510080230 | 8 | 202 | 0.0 | 0.0 | 0.00 | 1.09 | 0.00 | 81 | 1099.5 |
| 20260510074230 | 8 | 202 | 0.0 | 0.0 | 0.00 | 1.09 | 0.00 | 81 | 1099.7 |
| 20260510072246 | 8 | 202 | 0.0 | 0.0 | 0.00 | 1.09 | 0.00 | 80 | 1099.5 |
| 20260510071330 | 8 | 208 | 0.0 | 3.2 | 0.00 | 1.09 | 0.00 | 81 | 1099.2 |
| 20260510070329 | 8 | 157 | 1.6 | 4.8 | 0.00 | 1.09 | 0.00 | 81 | 1099.2 |
| 20260510070228 | 8 | 157 | 1.6 | 4.8 | 0.00 | 1.09 | 0.00 | 81 | 1099.2 |
| 20260510065228 | 8 | 152 | 0.0 | 3.2 | 0.00 | 1.09 | 0.00 | 81 | 1099.0 |
| 20260510063328 | 8 | 157 | 1.6 | 3.2 | 0.00 | 1.09 | 0.00 | 81 | 1098.9 |
| 20260510062328 | 9 | 157 | 0.0 | 0.0 | 0.00 | 1.09 | 0.00 | 80 | 1098.9 |
| 20260510061330 | 9 | 157 | 0.0 | 0.0 | 0.00 | 1.09 | 0.00 | 80 | 1098.9 |
| 20260510060329 | 9 | 157 | 0.0 | 0.0 | 0.00 | 1.09 | 0.00 | 80 | 1099.1 |
| 20260510055330 | 9 | 157 | 0.0 | 0.0 | 0.00 | 1.09 | 0.00 | 80 | 1099.4 |
| 20260510054329 | 9 | 157 | 0.0 | 0.0 | 0.00 | 1.09 | 0.00 | 80 | 1099.2 |
| 20260510053428 | 9 | 157 | 0.0 | 1.6 | 0.00 | 1.09 | 0.00 | 80 | 1099.4 |
| 20260510052430 | 9 | 157 | 0.0 | 0.0 | 0.00 | 1.09 | 0.00 | 80 | 1099.4 |
| 20260510050428 | 9 | 157 | 0.0 | 1.6 | 0.00 | 1.09 | 0.00 | 80 | 1099.2 |
| 20260510045429 | 9 | 157 | 0.0 | 3.2 | 0.00 | 1.09 | 0.00 | 79 | 1099.4 |
| 20260510044429 | 9 | 157 | 1.6 | 3.2 | 0.00 | 1.09 | 0.00 | 80 | 1099.5 |
| 20260510043431 | 9 | 157 | 0.0 | 0.0 | 0.00 | 1.09 | 0.00 | 80 | 1099.3 |
| 20260510042430 | 9 | 135 | 4.8 | 6.4 | 0.00 | 1.09 | 0.00 | 79 | 1099.3 |
| 20260510041429 | 9 | 135 | 0.0 | 1.6 | 0.00 | 1.09 | 0.00 | 80 | 1099.5 |
| 20260510040428 | 9 | 112 | 1.6 | 1.6 | 0.00 | 1.09 | 0.00 | 80 | 1099.3 |
| 20260510035511 | 9 | 112 | 0.0 | 0.0 | 0.00 | 1.09 | 1.09 | 80 | 1099.2 |
| 20260510034514 | 9 | 112 | 0.0 | 0.0 | 0.00 | 1.09 | 1.09 | 80 | 1099.5 |
| 20260510033516 | 9 | 112 | 0.0 | 0.0 | 0.00 | 1.09 | 1.09 | 80 | 1099.5 |
| 20260510032514 | 9 | 112 | 0.0 | 0.0 | 0.00 | 1.09 | 1.09 | 80 | 1099.5 |
| 20260510031512 | 9 | 180 | 0.0 | 0.0 | 0.00 | 1.09 | 1.09 | 80 | 1099.5 |
| 20260510030514 | 9 | 157 | 3.2 | 3.2 | 0.00 | 1.09 | 1.09 | 80 | 1099.4 |
| 20260510025613 | 9 | 157 | 0.0 | 0.0 | 0.00 | 1.09 | 1.09 | 80 | 1099.6 |
| 20260510022628 | 9 | 198 | 1.6 | 3.2 | 0.00 | 1.09 | 1.09 | 79 | 1099.4 |
| 20260510015813 | 9 | 157 | 3.2 | 6.4 | 0.00 | 1.09 | 1.09 | 80 | 1099.7 |
| 20260510014812 | 9 | 157 | 4.8 | 6.4 | 0.00 | 1.09 | 1.09 | 79 | 1099.7 |
| 20260510013814 | 9 | 157 | 3.2 | 4.8 | 0.00 | 1.09 | 1.09 | 80 | 1099.9 |
| 20260510012913 | 9 | 141 | 3.2 | 4.8 | 0.00 | 1.09 | 1.09 | 80 | 1100.2 |
| 20260510011913 | 9 | 208 | 3.2 | 8.0 | 0.00 | 1.09 | 1.09 | 80 | 1099.8 |
| 20260510010913 | 9 | 174 | 1.6 | 4.8 | 0.00 | 1.09 | 1.09 | 79 | 1099.7 |
| 20260510005912 | 9 | 179 | 0.0 | 4.8 | 0.00 | 1.09 | 1.09 | 80 | 1099.7 |
| 20260510005011 | 9 | 202 | 0.0 | 1.6 | 0.00 | 1.09 | 1.09 | 80 | 1099.2 |
| 20260510004014 | 9 | 167 | 0.0 | 1.6 | 0.00 | 1.09 | 1.09 | 80 | 1099.1 |
| 20260510002013 | 9 | 157 | 3.2 | 6.4 | 0.00 | 1.09 | 1.09 | 80 | 1098.8 |
| 20260510001014 | 9 | 157 | 0.0 | 1.6 | 0.00 | 1.09 | 1.09 | 80 | 1098.9 |
| 20260510000111 | 9 | 157 | 0.0 | 0.0 | 0.00 | 1.09 | 1.09 | 80 | 1098.8 |
| 20260509235113 | 9 | 157 | 0.0 | 0.0 | 0.00 | 1.09 | 1.09 | 79 | 1098.7 |
| 20260509234212 | 9 | 157 | 3.2 | 6.4 | 0.00 | 1.09 | 1.09 | 80 | 1098.5 |
| 20260509233212 | 9 | 143 | 8.0 | 11.3 | 0.00 | 1.09 | 1.09 | 80 | 1098.7 |
| 20260509232212 | 9 | 166 | 4.8 | 6.4 | 0.00 | 1.09 | 1.09 | 79 | 1098.7 |
| 20260509231214 | 10 | 157 | 6.4 | 8.0 | 0.00 | 1.09 | 1.09 | 80 | 1098.5 |
| 20260509230213 | 10 | 157 | 1.6 | 4.8 | 0.00 | 1.09 | 1.09 | 80 | 1098.7 |
| 20260509225312 | 10 | 157 | 0.0 | 0.0 | 0.00 | 1.09 | 1.09 | 79 | 1098.8 |
| 20260509224311 | 9 | 157 | 0.0 | 0.0 | 0.00 | 1.09 | 1.09 | 79 | 1098.8 |
| 20260509223314 | 9 | 157 | 0.0 | 3.2 | 0.00 | 1.09 | 1.09 | 80 | 1098.6 |
| 20260509222312 | 9 | 202 | 0.0 | 1.6 | 0.00 | 1.09 | 1.09 | 80 | 1098.7 |
| 20260509221313 | 9 | 157 | 0.0 | 0.0 | 0.00 | 1.09 | 1.09 | 80 | 1098.6 |
| 20260509220312 | 9 | 157 | 1.6 | 3.2 | 0.00 | 1.09 | 1.09 | 79 | 1098.4 |
| 20260509215315 | 9 | 135 | 0.0 | 3.2 | 0.00 | 1.09 | 1.09 | 80 | 1098.5 |
| 20260509214412 | 8 | 90 | 0.0 | 0.0 | 0.00 | 1.09 | 1.09 | 81 | 1098.6 |
| 20260509213411 | 8 | 90 | 0.0 | 0.0 | 0.03 | 1.09 | 1.09 | 81 | 1098.9 |
| 20260509212413 | 8 | 90 | 0.0 | 0.0 | 0.05 | 1.09 | 1.09 | 81 | 1099.0 |
| 20260509212314 | 8 | 90 | 0.0 | 0.0 | 0.05 | 1.09 | 1.09 | 81 | 1098.9 |
| 20260509211311 | 8 | 90 | 0.0 | 0.0 | 0.08 | 1.09 | 1.09 | 81 | 1099.0 |
| 20260509210411 | 8 | 90 | 0.0 | 0.0 | 0.08 | 1.09 | 1.09 | 81 | 1099.0 |
| 20260509205414 | 8 | 112 | 0.0 | 0.0 | 0.10 | 1.09 | 1.09 | 81 | 1099.2 |
| 20260509204413 | 8 | 112 | 0.0 | 1.6 | 0.13 | 1.09 | 1.09 | 80 | 1099.5 |
| 20260509204311 | 8 | 112 | 1.6 | 3.2 | 0.13 | 1.09 | 1.09 | 80 | 1099.5 |
| 20260509202313 | 8 | 157 | 0.0 | 3.2 | 0.13 | 1.04 | 1.04 | 81 | 1099.6 |
| 20260509201315 | 8 | 112 | 0.0 | 1.6 | 0.13 | 1.02 | 1.02 | 81 | 1099.7 |
| 20260509200312 | 8 | 153 | 0.0 | 3.2 | 0.13 | 1.02 | 1.02 | 82 | 1099.7 |
| 20260509200212 | 8 | 157 | 0.0 | 3.2 | 0.15 | 1.02 | 1.02 | 81 | 1099.8 |
| 20260509195211 | 7 | 122 | 0.0 | 1.6 | 0.13 | 0.99 | 0.99 | 82 | 1099.9 |
| 20260509194215 | 7 | 157 | 0.0 | 0.0 | 0.13 | 0.97 | 0.97 | 81 | 1099.9 |
| 20260509193312 | 7 | 157 | 0.0 | 0.0 | 0.13 | 0.94 | 0.94 | 82 | 1099.8 |
| 20260509192313 | 7 | 202 | 0.0 | 0.0 | 0.13 | 0.91 | 0.91 | 81 | 1099.7 |
| 20260509192214 | 7 | 202 | 0.0 | 1.6 | 0.13 | 0.91 | 0.91 | 81 | 1099.8 |
| 20260509191216 | 7 | 112 | 0.0 | 1.6 | 0.13 | 0.89 | 0.89 | 81 | 1099.8 |
| 20260509191113 | 7 | 112 | 0.0 | 1.6 | 0.13 | 0.89 | 0.89 | 82 | 1099.9 |
| 20260509190114 | 7 | 112 | 0.0 | 0.0 | 0.10 | 0.86 | 0.86 | 82 | 1099.8 |
| 20260509185211 | 7 | 112 | 0.0 | 0.0 | 0.10 | 0.86 | 0.84 | 82 | 1100.0 |
| 20260509184213 | 7 | 112 | 0.0 | 0.0 | 0.10 | 0.84 | 0.84 | 81 | 1100.0 |
| 20260509183213 | 7 | 112 | 0.0 | 0.0 | 0.08 | 0.81 | 0.81 | 83 | 1100.1 |
| 20260509182311 | 7 | 112 | 0.0 | 0.0 | 0.08 | 0.79 | 0.79 | 83 | 1100.2 |
| 20260509181313 | 7 | 112 | 0.0 | 1.6 | 0.05 | 0.76 | 0.76 | 83 | 1100.2 |
| 20260509180312 | 6 | 112 | 3.2 | 4.8 | 0.08 | 0.76 | 0.76 | 83 | 1100.2 |
| 20260509175313 | 6 | 112 | 3.2 | 4.8 | 0.08 | 0.76 | 0.76 | 83 | 1100.3 |
| 20260509173511 | 6 | 67 | 0.0 | 0.0 | 0.08 | 0.71 | 0.71 | 83 | 1100.5 |